Time,TemperatureF,DewpointF,PressureIn,WindDirection,WindDirectionDegrees,WindSpeedMPH,WindSpeedGustMPH,Humidity,HourlyPrecipIn,Conditions,Clouds,dailyrainin,SoftwareType,DateUTC
2013-10-17 13:37:00,39.0,35.1,30.01,North,0,2.6,2.6,86,0.00,,,0.00,WUHU216HW,2013-10-17 18:37:00,
2013-10-17 13:38:00,39.0,35.1,30.01,North,0,2.6,2.6,86,0.00,,,0.00,WUHU216HW,2013-10-17 18:38:00,
2013-10-17 13:43:00,39.3,35.5,30.00,NNW,338,8.8,10.4,86,0.00,,,0.00,WUHU216HW,2013-10-17 18:43:00,
2013-10-17 13:48:00,39.3,35.5,30.00,NNW,338,4.6,13.1,86,0.00,,,0.00,WUHU216HW,2013-10-17 18:48:00,
2013-10-17 13:53:00,39.5,35.4,30.01,NNE,23,3.5,13.1,85,0.00,,,0.00,WUHU216HW,2013-10-17 18:53:00,
2013-10-17 13:58:00,39.7,35.5,30.01,North,0,4.8,11.5,85,0.00,,,0.00,WUHU216HW,2013-10-17 18:58:00,
2013-10-17 14:03:00,39.9,35.7,30.00,NNW,338,0.0,15.7,85,0.00,,,0.00,WUHU216HW,2013-10-17 19:03:00,
2013-10-17 14:08:00,40.2,36.0,30.00,North,0,4.2,15.7,85,0.00,,,0.00,WUHU216HW,2013-10-17 19:08:00,
2013-10-17 14:13:00,40.1,35.3,30.00,North,0,9.1,10.9,83,0.00,,,0.00,WUHU216HW,2013-10-17 19:13:00,
2013-10-17 14:18:00,39.9,35.1,30.00,NW,315,2.9,10.9,83,0.00,,,0.00,WUHU216HW,2013-10-17 19:18:00,
2013-10-17 14:23:00,39.5,34.8,30.01,North,0,1.0,9.1,83,0.00,,,0.00,WUHU216HW,2013-10-17 19:23:00,
2013-10-17 14:28:00,39.3,34.9,30.00,North,0,4.6,8.8,84,0.00,,,0.00,WUHU216HW,2013-10-17 19:28:00,
2013-10-17 14:31:00,39.3,34.9,30.00,North,0,7.4,8.8,84,0.00,,,0.00,WUHU216HW,2013-10-17 19:31:00,
2013-10-17 14:36:00,39.9,35.4,30.01,NNW,338,6.6,7.4,84,0.00,,,0.00,WUHU216HW,2013-10-17 19:36:00,
2013-10-17 14:41:00,40.2,35.4,30.01,North,0,0.0,6.6,83,0.00,,,0.00,WUHU216HW,2013-10-17 19:41:00,
2013-10-17 14:46:00,39.9,34.8,30.01,North,0,11.8,11.8,82,0.00,,,0.00,WUHU216HW,2013-10-17 19:46:00,
2013-10-17 14:51:00,39.9,34.8,30.01,NNW,338,2.9,11.8,82,0.00,,,0.00,WUHU216HW,2013-10-17 19:51:00,
2013-10-17 14:56:00,40.6,35.8,30.01,North,0,0.0,5.9,83,0.00,,,0.00,WUHU216HW,2013-10-17 19:56:00,
2013-10-17 15:01:00,40.8,35.0,30.01,NNW,338,3.7,8.3,80,0.00,,,0.00,WUHU216HW,2013-10-17 20:01:00,
2013-10-17 15:06:00,41.1,35.4,30.00,NNW,338,7.4,8.3,80,0.00,,,0.00,WUHU216HW,2013-10-17 20:06:00,
2013-10-17 15:11:00,41.5,35.1,30.00,NNW,338,1.8,7.4,78,0.00,,,0.00,WUHU216HW,2013-10-17 20:11:00,
2013-10-17 15:16:00,41.5,34.4,30.00,NNW,338,0.7,3.1,76,0.00,,,0.00,WUHU216HW,2013-10-17 20:16:00,
2013-10-17 15:21:00,41.7,34.3,30.00,NNW,338,1.8,8.3,75,0.00,,,0.00,WUHU216HW,2013-10-17 20:21:00,
2013-10-17 15:26:00,41.7,34.0,30.00,North,0,11.5,14.8,74,0.00,,,0.00,WUHU216HW,2013-10-17 20:26:00,
2013-10-17 15:31:00,41.5,33.8,30.00,NNW,338,8.3,14.8,74,0.00,,,0.00,WUHU216HW,2013-10-17 20:31:00,
2013-10-17 15:36:00,41.3,33.9,30.00,North,0,1.6,12.6,75,0.00,,,0.00,WUHU216HW,2013-10-17 20:36:00,
2013-10-17 15:41:00,41.1,33.4,30.01,NNW,338,5.3,14.2,74,0.00,,,0.00,WUHU216HW,2013-10-17 20:41:00,
2013-10-17 15:46:00,41.0,33.2,30.00,NNW,338,18.2,18.2,74,0.00,,,0.00,WUHU216HW,2013-10-17 20:46:00,
2013-10-17 15:51:00,40.8,33.4,30.01,NNW,338,10.9,18.2,75,0.00,,,0.00,WUHU216HW,2013-10-17 20:51:00,
2013-10-17 15:56:00,40.8,32.7,30.01,NNW,338,10.4,10.9,73,0.00,,,0.00,WUHU216HW,2013-10-17 20:56:00,
2013-10-17 16:01:00,40.6,32.9,30.01,NNW,338,9.8,12.2,74,0.00,,,0.00,WUHU216HW,2013-10-17 21:01:00,
2013-10-17 16:06:00,40.6,32.9,30.01,NNW,338,15.7,15.7,74,0.00,,,0.00,WUHU216HW,2013-10-17 21:06:00,
2013-10-17 16:11:00,40.8,33.4,30.01,North,0,19.0,19.0,75,0.00,,,0.00,WUHU216HW,2013-10-17 21:11:00,
2013-10-17 16:16:00,40.8,33.4,30.01,NW,315,6.1,19.0,75,0.00,,,0.00,WUHU216HW,2013-10-17 21:16:00,
2013-10-17 16:21:00,40.8,33.1,30.02,NW,315,1.3,19.0,74,0.00,,,0.00,WUHU216HW,2013-10-17 21:21:00,
2013-10-17 16:26:00,41.1,33.4,30.01,North,0,0.7,8.5,74,0.00,,,0.00,WUHU216HW,2013-10-17 21:26:00,
2013-10-17 16:31:00,41.5,33.5,30.01,WNW,293,4.0,8.3,73,0.00,,,0.00,WUHU216HW,2013-10-17 21:31:00,
2013-10-17 16:36:00,42.0,34.0,30.01,NNW,338,3.1,8.5,73,0.00,,,0.00,WUHU216HW,2013-10-17 21:36:00,
2013-10-17 16:41:00,42.6,33.9,30.02,North,0,5.3,8.5,71,0.00,,,0.00,WUHU216HW,2013-10-17 21:41:00,
2013-10-17 16:46:00,42.6,33.9,30.01,NW,315,0.0,7.7,71,0.00,,,0.00,WUHU216HW,2013-10-17 21:46:00,
2013-10-17 16:51:00,42.4,33.4,30.01,NW,315,9.4,9.4,70,0.00,,,0.00,WUHU216HW,2013-10-17 21:51:00,
2013-10-17 16:56:00,41.9,32.9,30.01,NW,315,5.5,11.2,70,0.00,,,0.00,WUHU216HW,2013-10-17 21:56:00,
2013-10-17 17:01:00,41.7,32.7,30.02,WNW,293,1.6,11.5,70,0.00,,,0.00,WUHU216HW,2013-10-17 22:01:00,
2013-10-17 17:06:00,41.7,32.7,30.02,NW,315,3.7,12.2,70,0.00,,,0.00,WUHU216HW,2013-10-17 22:06:00,
2013-10-17 17:11:00,41.5,32.1,30.02,NNW,338,9.8,12.2,69,0.00,,,0.00,WUHU216HW,2013-10-17 22:11:00,
2013-10-17 17:16:00,41.5,32.1,30.02,NNW,338,7.7,10.9,69,0.00,,,0.00,WUHU216HW,2013-10-17 22:16:00,
2013-10-17 17:21:00,41.3,31.9,30.02,WNW,293,12.6,12.6,69,0.00,,,0.00,WUHU216HW,2013-10-17 22:21:00,
2013-10-17 17:26:00,41.3,31.9,30.02,NW,315,4.8,12.6,69,0.00,,,0.00,WUHU216HW,2013-10-17 22:26:00,
2013-10-17 17:31:00,41.1,31.7,30.02,NNW,338,10.9,10.9,69,0.00,,,0.00,WUHU216HW,2013-10-17 22:31:00,
2013-10-17 17:36:00,41.0,31.2,30.03,North,0,0.0,10.9,68,0.00,,,0.00,WUHU216HW,2013-10-17 22:36:00,
2013-10-17 17:41:00,41.0,31.6,30.02,NW,315,4.0,10.2,69,0.00,,,0.00,WUHU216HW,2013-10-17 22:41:00,
2013-10-17 17:46:00,40.8,31.4,30.03,WNW,293,1.6,8.5,69,0.00,,,0.00,WUHU216HW,2013-10-17 22:46:00,
2013-10-17 17:51:00,40.8,31.4,30.03,NNW,338,2.6,11.5,69,0.00,,,0.00,WUHU216HW,2013-10-17 22:51:00,
2013-10-17 17:56:00,40.4,31.6,30.03,North,0,5.9,11.5,69,0.00,,,0.00,WUHU216HW,2013-10-17 22:56:00,
2013-10-17 18:01:00,40.2,31.2,30.03,NW,315,4.2,5.9,70,0.00,,,0.00,WUHU216HW,2013-10-17 23:01:00,
2013-10-17 18:06:00,40.2,31.1,30.03,NNW,338,1.3,7.0,70,0.00,,,0.00,WUHU216HW,2013-10-17 23:06:00,
2013-10-17 18:11:00,39.9,30.9,30.03,NNW,338,3.5,7.0,70,0.00,,,0.00,WUHU216HW,2013-10-17 23:11:00,
2013-10-17 18:16:00,39.9,30.9,30.03,North,0,4.0,6.6,70,0.00,,,0.00,WUHU216HW,2013-10-17 23:16:00,
2013-10-17 18:21:00,39.7,30.7,30.03,NW,315,6.4,9.6,70,0.00,,,0.00,WUHU216HW,2013-10-17 23:21:00,
2013-10-17 18:26:00,39.7,30.7,30.03,NW,315,7.2,15.5,70,0.00,,,0.00,WUHU216HW,2013-10-17 23:26:00,
2013-10-17 18:31:00,39.5,30.5,30.04,NNW,338,5.3,15.5,70,0.00,,,0.00,WUHU216HW,2013-10-17 23:31:00,
2013-10-17 18:36:00,39.5,30.5,30.03,WNW,293,8.0,8.8,70,0.00,,,0.00,WUHU216HW,2013-10-17 23:36:00,
2013-10-17 18:41:00,39.3,30.7,30.03,NW,315,8.5,8.8,71,0.00,,,0.00,WUHU216HW,2013-10-17 23:41:00,
2013-10-17 18:46:00,39.3,30.7,30.03,NNW,338,5.3,8.5,71,0.00,,,0.00,WUHU216HW,2013-10-17 23:46:00,
2013-10-17 18:51:00,39.3,30.7,30.03,NW,315,7.0,8.5,71,0.00,,,0.00,WUHU216HW,2013-10-17 23:51:00,
2013-10-17 18:56:00,39.0,30.3,30.03,NW,315,10.7,14.4,71,0.00,,,0.00,WUHU216HW,2013-10-17 23:56:00,
2013-10-17 19:01:00,39.0,30.3,30.03,WNW,293,1.6,14.4,71,0.00,,,0.00,WUHU216HW,2013-10-18 00:01:00,
2013-10-17 19:06:00,38.8,30.5,30.03,NW,315,0.5,10.7,72,0.00,,,0.00,WUHU216HW,2013-10-18 00:06:00,
2013-10-17 19:11:00,38.8,30.5,30.03,NNW,338,10.4,10.4,72,0.00,,,0.00,WUHU216HW,2013-10-18 00:11:00,
2013-10-17 19:16:00,38.8,30.5,30.03,NNW,338,2.4,10.4,72,0.00,,,0.00,WUHU216HW,2013-10-18 00:16:00,
2013-10-17 19:21:00,38.1,29.8,30.03,North,0,5.0,10.4,72,0.00,,,0.00,WUHU216HW,2013-10-18 00:21:00,
2013-10-17 19:26:00,37.7,29.5,30.04,NW,315,5.5,5.5,72,0.00,,,0.00,WUHU216HW,2013-10-18 00:26:00,
2013-10-17 19:31:00,37.4,29.5,30.04,WNW,293,6.4,9.8,73,0.00,,,0.00,WUHU216HW,2013-10-18 00:31:00,
2013-10-17 19:36:00,37.2,29.3,30.04,NNW,338,8.5,9.8,73,0.00,,,0.00,WUHU216HW,2013-10-18 00:36:00,
2013-10-17 19:41:00,37.2,29.6,30.04,NW,315,6.1,8.5,74,0.00,,,0.00,WUHU216HW,2013-10-18 00:41:00,
2013-10-17 19:46:00,37.2,29.6,30.04,NW,315,5.9,8.5,74,0.00,,,0.00,WUHU216HW,2013-10-18 00:46:00,
2013-10-17 19:51:00,37.0,29.5,30.04,WNW,293,5.9,6.1,74,0.00,,,0.00,WUHU216HW,2013-10-18 00:51:00,
2013-10-17 19:56:00,36.6,29.1,30.04,NW,315,4.0,5.9,74,0.00,,,0.00,WUHU216HW,2013-10-18 00:56:00,
2013-10-17 20:01:00,36.5,28.9,30.04,NW,315,6.4,6.4,74,0.00,,,0.00,WUHU216HW,2013-10-18 01:01:00,
2013-10-17 20:06:00,36.3,29.1,30.05,NW,315,5.9,7.4,75,0.00,,,0.00,WUHU216HW,2013-10-18 01:06:00,
2013-10-17 20:11:00,36.1,28.9,30.04,NW,315,6.4,7.4,75,0.00,,,0.00,WUHU216HW,2013-10-18 01:11:00,
2013-10-17 20:16:00,35.9,29.0,30.04,NW,315,2.4,6.6,76,0.00,,,0.00,WUHU216HW,2013-10-18 01:16:00,
2013-10-17 20:21:00,35.4,28.5,30.04,NW,315,5.0,7.2,76,0.00,,,0.00,WUHU216HW,2013-10-18 01:21:00,
2013-10-17 20:26:00,35.2,28.3,30.04,NW,315,2.4,7.2,76,0.00,,,0.00,WUHU216HW,2013-10-18 01:26:00,
2013-10-17 20:31:00,34.8,28.3,30.04,WNW,293,3.5,5.9,77,0.00,,,0.00,WUHU216HW,2013-10-18 01:31:00,
2013-10-17 20:36:00,34.5,27.9,30.05,WNW,293,4.0,5.9,77,0.00,,,0.00,WUHU216HW,2013-10-18 01:36:00,
2013-10-17 20:41:00,34.3,27.7,30.05,NW,315,4.0,5.0,77,0.00,,,0.00,WUHU216HW,2013-10-18 01:41:00,
2013-10-17 20:46:00,34.3,28.1,30.05,NW,315,5.9,5.9,78,0.00,,,0.00,WUHU216HW,2013-10-18 01:46:00,
2013-10-17 20:51:00,34.3,28.1,30.05,WNW,293,5.3,5.9,78,0.00,,,0.00,WUHU216HW,2013-10-18 01:51:00,
2013-10-17 20:56:00,34.1,28.2,30.05,WNW,293,6.1,6.1,79,0.00,,,0.00,WUHU216HW,2013-10-18 01:56:00,
2013-10-17 21:01:00,33.9,28.0,30.05,WNW,293,5.0,6.1,79,0.00,,,0.00,WUHU216HW,2013-10-18 02:01:00,
2013-10-17 21:06:00,33.9,28.4,30.05,WNW,293,2.4,6.1,80,0.00,,,0.00,WUHU216HW,2013-10-18 02:06:00,
2013-10-17 21:11:00,33.9,28.4,30.05,WNW,293,2.4,5.5,80,0.00,,,0.00,WUHU216HW,2013-10-18 02:11:00,
2013-10-17 21:16:00,33.8,28.2,30.05,NW,315,3.7,3.7,80,0.00,,,0.00,WUHU216HW,2013-10-18 02:16:00,
2013-10-17 21:21:00,33.6,28.2,30.05,WNW,293,4.0,4.2,80,0.00,,,0.00,WUHU216HW,2013-10-18 02:21:00,
2013-10-17 21:26:00,33.6,28.0,30.05,WNW,293,1.6,4.2,80,0.00,,,0.00,WUHU216HW,2013-10-18 02:26:00,
2013-10-17 21:31:00,33.6,28.0,30.05,WNW,293,4.8,4.8,80,0.00,,,0.00,WUHU216HW,2013-10-18 02:31:00,
2013-10-17 21:36:00,33.6,28.3,30.05,WNW,293,2.4,6.4,81,0.00,,,0.00,WUHU216HW,2013-10-18 02:36:00,
2013-10-17 21:41:00,33.4,28.1,30.05,NW,315,4.0,8.8,81,0.00,,,0.00,WUHU216HW,2013-10-18 02:41:00,
2013-10-17 21:46:00,33.4,28.1,30.05,WNW,293,3.7,8.8,81,0.00,,,0.00,WUHU216HW,2013-10-18 02:46:00,
2013-10-17 21:51:00,33.0,27.8,30.05,WNW,293,1.3,4.6,81,0.00,,,0.00,WUHU216HW,2013-10-18 02:51:00,
2013-10-17 21:56:00,32.9,27.6,30.05,WNW,293,3.5,4.2,81,0.00,,,0.00,WUHU216HW,2013-10-18 02:56:00,
2013-10-17 22:01:00,32.9,27.9,30.05,WNW,293,1.3,3.5,82,0.00,,,0.00,WUHU216HW,2013-10-18 03:01:00,
2013-10-17 22:06:00,32.7,27.8,30.06,WNW,293,1.3,3.5,82,0.00,,,0.00,WUHU216HW,2013-10-18 03:06:00,
2013-10-17 22:11:00,32.7,27.8,30.06,WNW,293,4.2,4.2,82,0.00,,,0.00,WUHU216HW,2013-10-18 03:11:00,
2013-10-17 22:16:00,32.5,27.6,30.06,WNW,293,2.9,4.2,82,0.00,,,0.00,WUHU216HW,2013-10-18 03:16:00,
2013-10-17 22:21:00,32.3,27.5,30.06,WNW,293,4.8,4.8,82,0.00,,,0.00,WUHU216HW,2013-10-18 03:21:00,
2013-10-17 22:26:00,32.3,27.5,30.06,WNW,293,0.0,4.8,82,0.00,,,0.00,WUHU216HW,2013-10-18 03:26:00,
2013-10-17 22:31:00,32.3,27.5,30.06,WNW,293,0.0,4.8,82,0.00,,,0.00,WUHU216HW,2013-10-18 03:31:00,
2013-10-17 22:36:00,32.1,27.3,30.06,WNW,293,1.3,1.8,82,0.00,,,0.00,WUHU216HW,2013-10-18 03:36:00,
2013-10-17 22:41:00,32.1,27.3,30.06,WNW,293,0.0,1.8,82,0.00,,,0.00,WUHU216HW,2013-10-18 03:41:00,
2013-10-17 22:46:00,31.8,26.9,30.06,WNW,293,0.0,1.3,82,0.00,,,0.00,WUHU216HW,2013-10-18 03:46:00,
2013-10-17 22:51:00,31.8,26.9,30.06,WNW,293,0.0,0.0,82,0.00,,,0.00,WUHU216HW,2013-10-18 03:51:00,
2013-10-17 22:56:00,31.6,26.8,30.06,WNW,293,0.0,0.0,82,0.00,,,0.00,WUHU216HW,2013-10-18 03:56:00,
2013-10-17 23:01:00,31.6,26.8,30.06,WNW,293,0.0,0.0,82,0.00,,,0.00,WUHU216HW,2013-10-18 04:01:00,
2013-10-17 23:06:00,31.6,27.1,30.06,WNW,293,1.6,4.0,83,0.00,,,0.00,WUHU216HW,2013-10-18 04:06:00,
2013-10-17 23:11:00,31.2,26.7,30.06,WNW,293,0.7,4.0,83,0.00,,,0.00,WUHU216HW,2013-10-18 04:11:00,
2013-10-17 23:16:00,31.2,26.7,30.06,WNW,293,0.0,1.8,83,0.00,,,0.00,WUHU216HW,2013-10-18 04:16:00,
2013-10-17 23:21:00,31.4,26.9,30.06,WNW,293,2.4,2.4,83,0.00,,,0.00,WUHU216HW,2013-10-18 04:21:00,
2013-10-17 23:26:00,31.2,26.7,30.06,WNW,293,0.0,2.9,83,0.00,,,0.00,WUHU216HW,2013-10-18 04:26:00,
2013-10-17 23:31:00,31.2,26.7,30.05,WNW,293,0.0,2.9,83,0.00,,,0.00,WUHU216HW,2013-10-18 04:31:00,
2013-10-17 23:36:00,31.2,26.7,30.06,WNW,293,0.0,0.0,83,0.00,,,0.00,WUHU216HW,2013-10-18 04:36:00,
2013-10-17 23:41:00,31.2,26.7,30.06,WNW,293,0.0,0.0,83,0.00,,,0.00,WUHU216HW,2013-10-18 04:41:00,
2013-10-17 23:46:00,31.2,26.7,30.06,WNW,293,0.0,0.7,83,0.00,,,0.00,WUHU216HW,2013-10-18 04:46:00,
2013-10-17 23:51:00,31.2,27.0,30.06,WNW,293,0.0,2.4,84,0.00,,,0.00,WUHU216HW,2013-10-18 04:51:00,
2013-10-17 23:56:00,31.1,26.8,30.05,WNW,293,1.8,2.4,84,0.00,,,0.00,WUHU216HW,2013-10-18 04:56:00,